This is the latest recevied weather packets stored in our database for station/object SP3ZBZ-13. If no packets are shown the sender has not sent any weather packets the latest 10 day(s).
| Time | Temp. | Humidity | Pressure | Rain* | Wind** | Luminosity | Snow |
|---|---|---|---|---|---|---|---|
| 1777446559 | 6.67° C | 47% | 1026.2 hPa | - | - | 330 W/m² | - |
| 1777445658 | 6.11° C | 49% | 1026.2 hPa | - | - | 309 W/m² | - |
| 1777444757 | 5.56° C | 51% | 1026.1 hPa | - | - | 207 W/m² | - |
| 1777443856 | 5.56° C | 53% | 1025.9 hPa | - | - | 233 W/m² | - |
| 1777442955 | 5° C | 58% | 1025.8 hPa | - | - | 196 W/m² | - |
| 1777442054 | 4.44° C | 58% | 1025.7 hPa | - | - | 129 W/m² | - |
| 1777441153 | 3.89° C | 55% | 1025.6 hPa | - | - | 119 W/m² | - |
| 1777440252 | 2.22° C | 56% | 1025.4 hPa | - | - | 87 W/m² | - |
| 1777439351 | 1.11° C | 64% | 1025.3 hPa | - | - | 64 W/m² | - |
| 1777438450 | 0.56° C | 69% | 1025.3 hPa | - | - | 49 W/m² | - |
| 1777437549 | -0.56° C | 74% | 1025.2 hPa | - | - | 40 W/m² | - |
| 1777436648 | -1.11° C | 76% | 1025.1 hPa | - | - | 38 W/m² | - |
| 1777435747 | -1.67° C | 79% | 1025 hPa | - | - | 28 W/m² | - |
| 1777434846 | -1.67° C | 80% | 1024.9 hPa | - | - | 15 W/m² | - |
| 1777433945 | -1.67° C | 81% | 1024.7 hPa | - | - | 6 W/m² | - |
| 1777433045 | -1.67° C | 81% | 1024.6 hPa | - | - | 2 W/m² | - |
| 1777432143 | -1.67° C | 79% | 1024.7 hPa | - | - | - | - |
| 1777431242 | -1.67° C | 77% | 1024.7 hPa | - | - | - | - |
| 1777430341 | -1.11° C | 76% | 1024.7 hPa | - | - | - | - |
| 1777429440 | -1.11° C | 75% | 1024.7 hPa | - | - | - | - |
| 1777428539 | -1.11° C | 76% | 1024.6 hPa | - | - | - | - |
| 1777427638 | -1.11° C | 76% | 1024.6 hPa | - | - | - | - |
| 1777426737 | -0.56° C | 75% | 1024.6 hPa | - | - | - | - |
| 1777425836 | -0.56° C | 75% | 1024.4 hPa | - | - | - | - |
| 1777424935 | 0° C | 72% | 1024.4 hPa | - | - | - | - |
* Rain since midnight (hover to see other rain measurements)
** Current wind speed in m/s (hover to see current wind gust speed)